Caldwell, ID

3:17 AM MDT on August 24, 2017 (GMT -0600)
Caldwell Industrial

Weather History for KEUL - July, 2013

Change the Weather History Date:

Sunday, July 28, 2013

  Actual Average (KBOI) Record (KBOI)
Temperature  
Mean Temperature 72 °F -  
Max Temperature 91 °F 95 °F 106 °F (1934)
Min Temperature 53 °F 62 °F 45 °F (1948)
Cooling Degree Days 7    
Growing Degree Days 22 (Base 50)    
Moisture  
Dew Point 36 °F    
Average Humidity 27    
Maximum Humidity 58    
Minimum Humidity 13    
Precipitation  
Precipitation 0.00 in - - ()
Sea Level Pressure  
Sea Level Pressure 29.84 in    
Wind  
Wind Speed 5 mph (NNW)    
Max Wind Speed 12 mph    
Max Gust Speed 16 mph    
Visibility 10 miles    
Events      
Averages and records for this station are not official NWS values.
T = Trace of Precipitation, MM = Missing Value Source: NWS Daily Summary

Daily Weather History Graph

Daily Weather History Graph

Search for Another Location

Airport or City:

Trip Planner

Search our weather history database for the weather conditions in past years. The results will help you decide how hot, cold, wet, or windy it might be!

Date:

Astronomy

Jul. 28, 2013 Rise Set
Actual Time 6:31 AM MDT 9:13 PM MDT
Civil Twilight 5:58 AM MDT 9:46 PM MDT
Nautical Twilight 5:16 AM MDT 10:28 PM MDT
Astronomical Twilight 4:28 AM MDT 11:15 PM MDT
Moon No Moon Rise 1:33 PM MDT (7/28)
Length of Visible Light 15h 47m
Length of Day
14h 41m
Waning Gibbous, 60% of the Moon is Illuminated
Jul 28
Waning Gibbous
Jul 29
Last Quarter
Aug 6
New
Aug 14
First Quarter
Aug 20
Full

Hourly Weather History & Observations

Time (MDT) Temp. Dew Point Humidity Pressure Visibility Wind Dir Wind Speed Gust Speed Precip Events Conditions
12:15 AM 69.8 °F 35.6 °F 28% 29.86 in 10.0 mi Calm Calm - N/A   Clear
12:35 AM 68.0 °F 35.6 °F 30% 29.86 in 10.0 mi SW 6.9 mph - N/A   Clear
12:55 AM 69.8 °F 35.6 °F 28% 29.86 in 10.0 mi SW 5.8 mph - N/A   Clear
1:15 AM 68.0 °F 35.6 °F 30% 29.86 in 10.0 mi WSW 8.1 mph - N/A   Clear
1:35 AM 66.2 °F 35.6 °F 32% 29.86 in 10.0 mi West 8.1 mph - N/A   Clear
1:55 AM 66.2 °F 33.8 °F 30% 29.86 in 10.0 mi West 6.9 mph - N/A   Clear
2:15 AM 66.2 °F 33.8 °F 30% 29.86 in 10.0 mi West 8.1 mph - N/A   Clear
2:35 AM 66.2 °F 33.8 °F 30% 29.86 in 10.0 mi West 9.2 mph - N/A   Clear
2:55 AM 66.2 °F 32.0 °F 28% 29.86 in 10.0 mi West 8.1 mph - N/A   Clear
3:15 AM 66.2 °F 30.2 °F 26% 29.86 in 10.0 mi WNW 9.2 mph - N/A   Clear
3:35 AM 66.2 °F 30.2 °F 26% 29.86 in 10.0 mi WNW 10.4 mph - N/A   Clear
3:55 AM 66.2 °F 30.2 °F 26% 29.86 in 10.0 mi WNW 11.5 mph - N/A   Clear
4:15 AM 64.4 °F 30.2 °F 28% 29.86 in 10.0 mi NW 8.1 mph - N/A   Clear
4:35 AM 62.6 °F 32.0 °F 32% 29.87 in 10.0 mi WNW 5.8 mph - N/A   Clear
4:55 AM 59.0 °F 33.8 °F 39% 29.88 in 10.0 mi East 6.9 mph - N/A   Clear
5:15 AM 55.4 °F 35.6 °F 47% 29.89 in 10.0 mi East 4.6 mph - N/A   Clear
5:35 AM 55.4 °F 35.6 °F 47% 29.88 in 10.0 mi ESE 3.5 mph - N/A   Clear
5:55 AM 55.4 °F 35.6 °F 47% 29.89 in 10.0 mi SSE 4.6 mph - N/A   Clear
6:15 AM 57.2 °F 33.8 °F 41% 29.89 in 10.0 mi Calm Calm - N/A   Clear
6:35 AM 55.4 °F 35.6 °F 47% 29.89 in 10.0 mi West 3.5 mph - N/A   Clear
6:55 AM 55.4 °F 37.4 °F 51% 29.89 in 10.0 mi Calm Calm - N/A   Clear
7:15 AM 53.6 °F 37.4 °F 54% 29.90 in 10.0 mi ENE 3.5 mph - N/A   Clear
7:35 AM 53.6 °F 39.2 °F 58% 29.91 in 10.0 mi Calm Calm - N/A   Clear
7:55 AM 57.2 °F 37.4 °F 48% 29.91 in 10.0 mi Calm Calm - N/A   Clear
8:15 AM 60.8 °F 39.2 °F 45% 29.92 in 10.0 mi SSE 4.6 mph - N/A   Clear
8:35 AM 64.4 °F 39.2 °F 40% 29.92 in 10.0 mi Calm Calm - N/A   Clear
8:55 AM 66.2 °F 37.4 °F 35% 29.93 in 10.0 mi Calm Calm - N/A   Clear
9:15 AM 69.8 °F 37.4 °F 31% 29.92 in 10.0 mi ENE 4.6 mph - N/A   Clear
11:15 AM 77.0 °F 39.2 °F 26% 29.91 in 10.0 mi NW 4.6 mph - N/A   Clear
11:35 AM 78.8 °F 39.2 °F 24% 29.90 in 10.0 mi NNW 9.2 mph - N/A   Clear
11:55 AM 80.6 °F 37.4 °F 21% 29.90 in 10.0 mi NNW 8.1 mph - N/A   Clear
12:15 PM 80.6 °F 37.4 °F 21% 29.90 in 10.0 mi North 5.8 mph - N/A   Partly Cloudy
12:35 PM 82.4 °F 35.6 °F 19% 29.89 in 10.0 mi NNE 5.8 mph - N/A   Clear
12:55 PM 82.4 °F 35.6 °F 19% 29.88 in 10.0 mi NNW 4.6 mph - N/A   Clear
1:15 PM 84.2 °F 35.6 °F 18% 29.88 in 10.0 mi NNW 6.9 mph - N/A   Clear
1:35 PM 84.2 °F 35.6 °F 18% 29.87 in 10.0 mi NNW 6.9 mph - N/A   Clear
1:55 PM 84.2 °F 33.8 °F 16% 29.87 in 10.0 mi NW 9.2 mph - N/A   Clear
2:15 PM 86.0 °F 32.0 °F 14% 29.86 in 10.0 mi North 6.9 mph - N/A   Clear
2:35 PM 87.8 °F 33.8 °F 15% 29.86 in 10.0 mi North 5.8 mph - N/A   Clear
2:55 PM 87.8 °F 33.8 °F 15% 29.85 in 10.0 mi West 4.6 mph - N/A   Clear
3:15 PM 87.8 °F 32.0 °F 14% 29.84 in 10.0 mi NNE 4.6 mph - N/A   Clear
3:35 PM 89.6 °F 33.8 °F 14% 29.82 in 10.0 mi NNW 8.1 mph - N/A   Clear
4:15 PM 89.6 °F 33.8 °F 14% 29.81 in 10.0 mi NW 9.2 mph - N/A   Clear
4:35 PM 91.4 °F 33.8 °F 13% 29.80 in 10.0 mi North 9.2 mph - N/A   Clear
4:55 PM 91.4 °F 33.8 °F 13% 29.79 in 10.0 mi NE 4.6 mph - N/A   Clear
5:15 PM 91.4 °F 33.8 °F 13% 29.78 in 10.0 mi North 6.9 mph - N/A   Clear
5:35 PM 91.4 °F 33.8 °F 13% 29.78 in 10.0 mi North 6.9 mph - N/A   Clear
5:55 PM 91.4 °F 37.4 °F 15% 29.77 in 10.0 mi ENE 8.1 mph - N/A   Clear
6:15 PM 91.4 °F 35.6 °F 14% 29.77 in 10.0 mi NE 8.1 mph - N/A   Clear
6:35 PM 89.6 °F 37.4 °F 16% 29.77 in 10.0 mi NE 9.2 mph - N/A   Clear
6:55 PM 89.6 °F 39.2 °F 17% 29.76 in 10.0 mi NE 9.2 mph - N/A   Clear
7:15 PM 89.6 °F 39.2 °F 17% 29.76 in 10.0 mi NE 8.1 mph - N/A   Clear
7:35 PM 87.8 °F 42.8 °F 21% 29.76 in 10.0 mi NE 4.6 mph - N/A   Clear
7:55 PM 87.8 °F 41.0 °F 19% 29.76 in 10.0 mi NE 3.5 mph - N/A   Clear
8:15 PM 86.0 °F 44.6 °F 23% 29.75 in 10.0 mi Calm Calm - N/A   Clear
8:35 PM 84.2 °F 42.8 °F 23% 29.75 in 10.0 mi Calm Calm - N/A   Clear
8:55 PM 80.6 °F 44.6 °F 28% 29.75 in 10.0 mi Calm Calm - N/A   Clear
9:15 PM 80.6 °F 39.2 °F 23% 29.76 in 10.0 mi Calm Calm - N/A   Clear
9:35 PM 77.0 °F 41.0 °F 28% 29.76 in 10.0 mi Calm Calm - N/A   Clear
9:55 PM 77.0 °F 39.2 °F 26% 29.77 in 10.0 mi Calm Calm - N/A   Clear
10:15 PM 77.0 °F 42.8 °F 29% 29.78 in 10.0 mi WSW 3.5 mph - N/A   Clear
10:35 PM 73.4 °F 42.8 °F 33% 29.80 in 10.0 mi WNW 8.1 mph 16.1 mph N/A   Clear